Weather in George Town

Malaysia     5°25′25″N   100°18′59″E
temp.,
°C
wind,
m/s
gust,
m/s
humid.,
%
clouds,
%
prec.,
mm/h
press.,
hPa
HPBL,
m
10 april, sat
sat1023:00+29nnw457423 0.8 1010708
02:00+27nne447798 1.0 1009401
05:00+26ne337937 0.0 1008290
08:00+26ne227984 0.0 1010247
11:00+28se017377 0.0 1012460
14:00+29wsw32719 0.2 1010631
17:00+29sw54703 0.0 1007540
20:00+28wnw227174 0.3 1009357
11 april, sun
sun1123:00+27ne017558 4.1 101246
02:00+28ene117332 4.5 1010231
05:00+26ese338357 0.3 1009163
08:00+26ese338325 0.3 1011173
11:00+29se226919 0.1 1012571
14:00+29sw22697 0.6 1011515
17:00+30sw55665 0.4 1008614
20:00+28ssw227147 1.7 1010147
12 april, mon
mon1223:00+28wnw12705 0.9 1012300
02:00+27nnw127155 2.3 1011339
05:00+26ese22785 0.3 1010199
08:00+26ese3383100 1.2 1012150
11:00+29s236723 0.4 1013608
14:00+30ssw446431 0.5 1011854
17:00+29sw556663 0.1 1008696
20:00+29ssw3469100 0.1 1010469
13 april, tue
tue1323:00+28sse227064 0.9 1012351
02:00+26e228199 5.9 101155
05:00+27sse227773 4.9 101086
08:00+27sse23739 8.0 1012346
11:00+29s226887 0.0 1013759
14:00+30wsw326759 0.1 1011901
17:00+29wsw326899 0.4 1009773
20:00+28nne1170100 0.5 1010465
14 april, wed
wed1423:00+28e1175100 0.3 1012324
02:00+26s228295 6.1 1011171
05:00+27ssw227562 0.9 1010351
08:00+26e127899 1.6 1012343
11:00+27e117681 5.1 1013114
14:00+29w226896 5.4 1011639
17:00+28wnw3369100 0.1 1009670
20:00+28nw2270100 0.3 1010678